sat.trackr.live / text

‹ back to catalog

KUIPER-00541

NORAD 69610 · 2026-140U

PAYLOAD ACTIVE UNKNOWN

§ Identity

Operator
Country
US
Launch date
2026-06-17
Launch site
FRGUI
Launch vehicle
Mass (kg)
RCS (m²)

External: N2YO · Heavens-Above · Gunter

§ Orbital elements

Epoch: 2026-09-20T04:00:03.000096Z

Period
94.97 min
Inclination
51.8896°
Eccentricity
0.0006863
Mean motion
15.16342117 rev/d
Perigee alt
512.2 km
Apogee alt
521.6 km
Semi-major
6,895.0 km
B*
-1.0625e-1
RAAN
299.9448°
Arg perigee
184.0592°
Mean anomaly
332.5310°
Rev number
486

§ Raw data

KUIPER-005411 69610U 26140U   26263.16670139 -.01895365  00000+0 -10625+0 0  99982 69610  51.8896 299.9448 0006863 184.0592 332.5310 15.16342117  4864

JSON: /api/v1/satellites/69610 · /tle

For live sub-satellite position, see the globe view (requires WebGL).

§ Visibility from observer

Set your observer location to see the next 7 days of passes ≥ 10°. The values pass through the URL so the page stays shareable.

No JS? Fill the form by hand. The geolocation button needs JavaScript.